Wetterdaten: Montag, 17.06.2013
Datum Zeit Temperatur Luftfeuchte Luftdruck Regen Wind Richtung Richtung Taupunkt Windchill Windben
17.06.2013 00:00 15,8 C 84 % 1020,2 hPa 0,0 l/m 0,3 km/h (0 Bft) NO 45 13,1 C 16,2 C 1,6 km/h (1 Bft)
17.06.2013 00:05 15,8 C 84 % 1020,0 hPa 0,0 l/m 0,5 km/h (0 Bft) SO 135 13,1 C 16,2 C 0,0 km/h (0 Bft)
17.06.2013 00:10 16,0 C 84 % 1020,0 hPa 0,0 l/m 1,4 km/h (1 Bft) S-SW 202 13,3 C 16,4 C 3,1 km/h (1 Bft)
17.06.2013 00:15 16,0 C 84 % 1020,0 hPa 0,0 l/m 1,3 km/h (1 Bft) S 180 13,3 C 16,6 C 0,0 km/h (0 Bft)
17.06.2013 00:20 15,8 C 85 % 1020,0 hPa 0,0 l/m 0,5 km/h (0 Bft) W-SW 247 13,3 C 16,5 C 0,0 km/h (0 Bft)
17.06.2013 00:25 15,9 C 85 % 1020,0 hPa 0,0 l/m 0,2 km/h (0 Bft) S-SW 202 13,4 C 16,5 C 0,0 km/h (0 Bft)
17.06.2013 00:30 15,9 C 85 % 1020,0 hPa 0,0 l/m 0,3 km/h (0 Bft) W-SW 247 13,4 C 16,3 C 0,0 km/h (0 Bft)
17.06.2013 00:35 15,8 C 85 % 1020,0 hPa 0,0 l/m 0,5 km/h (0 Bft) O-SO 112 13,3 C 16,1 C 0,0 km/h (0 Bft)
17.06.2013 00:40 15,5 C 85 % 1020,0 hPa 0,0 l/m 0,2 km/h (0 Bft) S 180 13,0 C 15,9 C 0,0 km/h (0 Bft)
17.06.2013 00:45 15,5 C 85 % 1020,0 hPa 0,0 l/m 0,2 km/h (0 Bft) NW 315 13,0 C 15,8 C 0,0 km/h (0 Bft)
17.06.2013 00:50 15,4 C 85 % 1020,0 hPa 0,0 l/m 0,3 km/h (0 Bft) W-SW 247 12,9 C 15,8 C 1,6 km/h (1 Bft)
17.06.2013 00:55 15,5 C 85 % 1020,0 hPa 0,0 l/m 0,3 km/h (0 Bft) W-SW 247 13,0 C 15,8 C 0,0 km/h (0 Bft)
17.06.2013 01:00 15,6 C 86 % 1020,0 hPa 0,0 l/m 0,2 km/h (0 Bft) S-SW 202 13,3 C 15,9 C 0,0 km/h (0 Bft)
17.06.2013 01:05 15,5 C 86 % 1019,9 hPa 0,0 l/m 0,3 km/h (0 Bft) W-SW 247 13,2 C 15,9 C 0,0 km/h (0 Bft)
17.06.2013 01:11 15,5 C 86 % 1019,9 hPa 0,0 l/m 0,5 km/h (0 Bft) W-SW 247 13,2 C 16,0 C 2,7 km/h (1 Bft)
17.06.2013 01:15 15,6 C 86 % 1019,9 hPa 0,0 l/m 0,8 km/h (0 Bft) W 270 13,3 C 16,1 C 2,6 km/h (1 Bft)
17.06.2013 01:20 15,6 C 86 % 1019,9 hPa 0,0 l/m 0,8 km/h (0 Bft) W 270 13,3 C 16,2 C 0,0 km/h (0 Bft)
17.06.2013 01:25 15,7 C 86 % 1019,9 hPa 0,0 l/m 0,6 km/h (0 Bft) S-SW 202 13,4 C 16,1 C 0,0 km/h (0 Bft)
17.06.2013 01:30 15,4 C 86 % 1019,9 hPa 0,0 l/m 0,5 km/h (0 Bft) W-SW 247 13,1 C 16,0 C 0,0 km/h (0 Bft)
17.06.2013 01:35 15,4 C 86 % 1019,9 hPa 0,0 l/m 0,2 km/h (0 Bft) W-SW 247 13,1 C 16,0 C 0,0 km/h (0 Bft)
17.06.2013 01:40 15,5 C 86 % 1019,9 hPa 0,0 l/m 0,5 km/h (0 Bft) SO 135 13,2 C 16,0 C 0,0 km/h (0 Bft)
17.06.2013 01:45 15,5 C 86 % 1019,9 hPa 0,0 l/m 0,3 km/h (0 Bft) O-SO 112 13,2 C 16,0 C 0,0 km/h (0 Bft)
17.06.2013 01:50 15,4 C 86 % 1019,9 hPa 0,0 l/m 0,3 km/h (0 Bft) W-SW 247 13,1 C 16,0 C 0,0 km/h (0 Bft)
17.06.2013 01:55 15,6 C 86 % 1019,9 hPa 0,0 l/m 0,5 km/h (0 Bft) W-SW 247 13,3 C 16,0 C 1,6 km/h (1 Bft)
17.06.2013 02:00 15,7 C 86 % 1019,9 hPa 0,0 l/m 0,6 km/h (0 Bft) S 180 13,4 C 16,0 C 1,6 km/h (1 Bft)
17.06.2013 02:05 15,7 C 87 % 1019,7 hPa 0,0 l/m 1,0 km/h (0 Bft) SO 135 13,5 C 15,9 C 1,6 km/h (1 Bft)
17.06.2013 02:10 15,6 C 86 % 1019,7 hPa 0,0 l/m 0,6 km/h (0 Bft) W 270 13,3 C 15,8 C 3,4 km/h (1 Bft)
17.06.2013 02:15 15,3 C 86 % 1019,7 hPa 0,0 l/m 0,8 km/h (0 Bft) S-SW 202 13,0 C 15,7 C 3,4 km/h (1 Bft)
17.06.2013 02:20 15,1 C 86 % 1019,7 hPa 0,0 l/m 0,8 km/h (0 Bft) N-NO 22 12,8 C 15,6 C 1,8 km/h (1 Bft)
17.06.2013 02:25 15,0 C 86 % 1019,6 hPa 0,0 l/m 0,5 km/h (0 Bft) W-SW 247 12,7 C 15,6 C 1,6 km/h (1 Bft)
17.06.2013 02:30 15,1 C 87 % 1019,6 hPa 0,0 l/m 0,6 km/h (0 Bft) S-SW 202 13,0 C 15,6 C 2,3 km/h (1 Bft)
17.06.2013 02:35 15,2 C 87 % 1019,6 hPa 0,0 l/m 1,0 km/h (0 Bft) W-SW 247 13,0 C 15,7 C 4,2 km/h (1 Bft)
17.06.2013 02:40 15,3 C 87 % 1019,6 hPa 0,0 l/m 0,6 km/h (0 Bft) S 180 13,1 C 15,7 C 4,7 km/h (1 Bft)
17.06.2013 02:45 15,2 C 87 % 1019,5 hPa 0,0 l/m 0,5 km/h (0 Bft) S 180 13,0 C 15,5 C 0,0 km/h (0 Bft)
17.06.2013 02:50 15,0 C 87 % 1019,5 hPa 0,0 l/m 0,3 km/h (0 Bft) W-SW 247 12,9 C 15,4 C 1,6 km/h (1 Bft)
17.06.2013 02:55 15,0 C 87 % 1019,5 hPa 0,0 l/m 0,3 km/h (0 Bft) W-SW 247 12,9 C 15,3 C 0,0 km/h (0 Bft)
17.06.2013 03:00 15,2 C 87 % 1019,5 hPa 0,0 l/m 0,2 km/h (0 Bft) O-SO 112 13,0 C 15,0 C 0,0 km/h (0 Bft)
17.06.2013 03:05 15,1 C 87 % 1019,3 hPa 0,0 l/m 0,3 km/h (0 Bft) S 180 13,0 C 15,0 C 0,0 km/h (0 Bft)
17.06.2013 03:10 14,8 C 88 % 1019,3 hPa 0,0 l/m 0,2 km/h (0 Bft) W-SW 247 12,8 C 14,9 C 0,0 km/h (0 Bft)
17.06.2013 03:15 14,6 C 87 % 1019,3 hPa 0,0 l/m 0,3 km/h (0 Bft) S-SW 202 12,5 C 14,8 C 0,0 km/h (0 Bft)
17.06.2013 03:20 14,6 C 88 % 1019,3 hPa 0,0 l/m 0,5 km/h (0 Bft) W-SW 247 12,6 C 14,8 C 1,6 km/h (1 Bft)
17.06.2013 03:25 14,6 C 88 % 1019,4 hPa 0,0 l/m 0,6 km/h (0 Bft) W-SW 247 12,6 C 14,9 C 0,0 km/h (0 Bft)
17.06.2013 03:30 14,8 C 88 % 1019,4 hPa 0,0 l/m 1,1 km/h (1 Bft) S-SW 202 12,8 C 15,0 C 0,0 km/h (0 Bft)
17.06.2013 03:35 14,7 C 88 % 1019,4 hPa 0,0 l/m 0,8 km/h (0 Bft) W-SW 247 12,7 C 15,0 C 0,0 km/h (0 Bft)
17.06.2013 03:40 14,6 C 88 % 1019,4 hPa 0,0 l/m 0,2 km/h (0 Bft) W-SW 247 12,6 C 14,8 C 2,3 km/h (1 Bft)
17.06.2013 03:45 14,5 C 88 % 1019,3 hPa 0,0 l/m 0,5 km/h (0 Bft) W-SW 247 12,5 C 14,7 C 2,9 km/h (1 Bft)
17.06.2013 03:50 14,3 C 88 % 1019,3 hPa 0,0 l/m 0,5 km/h (0 Bft) W-SW 247 12,3 C 14,6 C 0,0 km/h (0 Bft)
17.06.2013 03:55 14,2 C 88 % 1019,3 hPa 0,0 l/m 0,5 km/h (0 Bft) S 180 12,2 C 14,4 C 2,6 km/h (1 Bft)
17.06.2013 04:00 14,1 C 88 % 1019,3 hPa 0,0 l/m 0,6 km/h (0 Bft) W-SW 247 12,1 C 14,4 C 0,0 km/h (0 Bft)
17.06.2013 04:05 14,0 C 89 % 1019,3 hPa 0,0 l/m 0,5 km/h (0 Bft) W-SW 247 12,2 C 14,1 C 0,0 km/h (0 Bft)
17.06.2013 04:10 14,1 C 89 % 1019,3 hPa 0,0 l/m 0,5 km/h (0 Bft) O-SO 112 12,3 C 14,0 C 2,6 km/h (1 Bft)
17.06.2013 04:15 14,2 C 89 % 1019,3 hPa 0,0 l/m 0,8 km/h (0 Bft) S 180 12,4 C 14,1 C 0,0 km/h (0 Bft)
17.06.2013 04:20 14,2 C 89 % 1019,3 hPa 0,0 l/m 0,6 km/h (0 Bft) O-SO 112 12,4 C 14,1 C 0,0 km/h (0 Bft)
17.06.2013 04:25 14,2 C 89 % 1019,2 hPa 0,0 l/m 0,2 km/h (0 Bft) O-SO 112 12,4 C 14,0 C 1,9 km/h (1 Bft)
17.06.2013 04:30 14,2 C 89 % 1019,2 hPa 0,0 l/m 0,3 km/h (0 Bft) O 90 12,4 C 13,9 C 0,0 km/h (0 Bft)
17.06.2013 04:35 14,2 C 89 % 1019,2 hPa 0,0 l/m 0,3 km/h (0 Bft) O-SO 112 12,4 C 14,0 C 0,0 km/h (0 Bft)
17.06.2013 04:40 13,8 C 89 % 1019,2 hPa 0,0 l/m 0,2 km/h (0 Bft) O-SO 112 12,0 C 13,8 C 0,0 km/h (0 Bft)
17.06.2013 04:45 13,6 C 89 % 1019,2 hPa 0,0 l/m 0,0 km/h (0 Bft) O 90 11,8 C 13,7 C 0,0 km/h (0 Bft)
17.06.2013 04:50 13,6 C 89 % 1019,2 hPa 0,0 l/m 0,2 km/h (0 Bft) NO 45 11,8 C 13,4 C 0,0 km/h (0 Bft)
17.06.2013 04:55 13,6 C 89 % 1019,2 hPa 0,0 l/m 0,3 km/h (0 Bft) NO 45 11,8 C 13,4 C 0,0 km/h (0 Bft)
17.06.2013 05:00 13,5 C 90 % 1019,2 hPa 0,0 l/m 0,5 km/h (0 Bft) NO 45 11,9 C 13,4 C 0,0 km/h (0 Bft)
17.06.2013 05:05 13,5 C 90 % 1018,9 hPa 0,0 l/m 0,3 km/h (0 Bft) O 90 11,9 C 13,4 C 0,0 km/h (0 Bft)
17.06.2013 05:11 13,6 C 90 % 1018,9 hPa 0,0 l/m 0,0 km/h (0 Bft) N 0 12,0 C 13,4 C 0,0 km/h (0 Bft)
17.06.2013 05:15 13,8 C 90 % 1018,9 hPa 0,0 l/m 0,2 km/h (0 Bft) N 0 12,2 C 13,4 C 0,0 km/h (0 Bft)
17.06.2013 05:20 13,4 C 90 % 1018,9 hPa 0,0 l/m 0,2 km/h (0 Bft) NO 45 11,8 C 13,5 C 1,6 km/h (1 Bft)
17.06.2013 05:25 13,1 C 90 % 1018,8 hPa 0,0 l/m 0,0 km/h (0 Bft) NO 45 11,5 C 13,4 C 0,0 km/h (0 Bft)
17.06.2013 05:31 13,4 C 90 % 1018,8 hPa 0,0 l/m 0,0 km/h (0 Bft) O-SO 112 11,8 C 13,3 C 0,0 km/h (0 Bft)
17.06.2013 05:32 13,4 C 90 % 1018,8 hPa 0,0 l/m 0,0 km/h (0 Bft) O-SO 112 11,8 C 13,3 C 0,0 km/h (0 Bft)
17.06.2013 05:33 13,4 C 90 % 1018,8 hPa 0,0 l/m 0,0 km/h (0 Bft) O-SO 112 11,8 C 13,3 C 0,0 km/h (0 Bft)
17.06.2013 05:34 13,4 C 90 % 1018,8 hPa 0,0 l/m 0,0 km/h (0 Bft) O-SO 112 11,8 C 13,4 C 0,0 km/h (0 Bft)
17.06.2013 05:35 13,4 C 90 % 1018,8 hPa 0,0 l/m 0,0 km/h (0 Bft) O-SO 112 11,8 C 13,4 C 0,0 km/h (0 Bft)
17.06.2013 05:37 13,4 C 90 % 1018,8 hPa 0,0 l/m 0,0 km/h (0 Bft) O-SO 112 11,8 C 13,4 C 0,0 km/h (0 Bft)
17.06.2013 05:40 13,1 C 90 % 1018,8 hPa 0,0 l/m 0,0 km/h (0 Bft) O-SO 112 11,5 C 13,4 C 0,0 km/h (0 Bft)
17.06.2013 05:45 13,1 C 90 % 1018,7 hPa 0,0 l/m 0,0 km/h (0 Bft) O 90 11,5 C 13,5 C 0,0 km/h (0 Bft)
17.06.2013 05:50 13,3 C 90 % 1018,7 hPa 0,0 l/m 0,0 km/h (0 Bft) O-SO 112 11,7 C 13,5 C 0,0 km/h (0 Bft)
17.06.2013 05:55 13,4 C 90 % 1018,7 hPa 0,0 l/m 0,0 km/h (0 Bft) NO 45 11,8 C 13,6 C 0,0 km/h (0 Bft)
17.06.2013 06:00 13,5 C 90 % 1018,7 hPa 0,0 l/m 0,0 km/h (0 Bft) O-SO 112 11,9 C 13,9 C 0,0 km/h (0 Bft)
17.06.2013 06:05 14,1 C 90 % 1018,8 hPa 0,0 l/m 0,0 km/h (0 Bft) SO 135 12,5 C 14,5 C 0,0 km/h (0 Bft)
17.06.2013 06:10 14,9 C 90 % 1018,8 hPa 0,0 l/m 0,0 km/h (0 Bft) NO 45 13,3 C 15,0 C 0,0 km/h (0 Bft)
17.06.2013 06:15 15,4 C 89 % 1018,8 hPa 0,0 l/m 0,0 km/h (0 Bft) NO 45 13,6 C 15,4 C 0,0 km/h (0 Bft)
17.06.2013 06:20 16,3 C 88 % 1018,8 hPa 0,0 l/m 0,0 km/h (0 Bft) SO 135 14,3 C 16,5 C 0,0 km/h (0 Bft)
17.06.2013 06:25 16,5 C 86 % 1018,6 hPa 0,0 l/m 0,0 km/h (0 Bft) O-NO 67 14,1 C 17,0 C 0,0 km/h (0 Bft)
17.06.2013 06:30 18,7 C 85 % 1018,6 hPa 0,0 l/m 0,2 km/h (0 Bft) NO 45 16,1 C 17,8 C 0,0 km/h (0 Bft)
17.06.2013 06:35 19,4 C 84 % 1018,6 hPa 0,0 l/m 0,2 km/h (0 Bft) S-SW 202 16,6 C 18,5 C 0,0 km/h (0 Bft)
17.06.2013 06:40 20,5 C 79 % 1018,6 hPa 0,0 l/m 0,2 km/h (0 Bft) O-SO 112 16,7 C 19,6 C 0,0 km/h (0 Bft)
17.06.2013 06:45 21,5 C 79 % 1018,6 hPa 0,0 l/m 0,2 km/h (0 Bft) S-SO 157 17,7 C 20,5 C 2,1 km/h (1 Bft)
17.06.2013 06:50 22,5 C 74 % 1018,6 hPa 0,0 l/m 0,0 km/h (0 Bft) O-NO 67 17,6 C 21,6 C 0,0 km/h (0 Bft)
17.06.2013 06:55 22,4 C 72 % 1018,6 hPa 0,0 l/m 0,3 km/h (0 Bft) W-SW 247 17,1 C 22,3 C 0,0 km/h (0 Bft)
17.06.2013 07:00 23,4 C 67 % 1018,6 hPa 0,0 l/m 0,3 km/h (0 Bft) O-SO 112 16,9 C 23,2 C 0,0 km/h (0 Bft)
17.06.2013 07:05 24,3 C 66 % 1018,5 hPa 0,0 l/m 0,2 km/h (0 Bft) N-NO 22 17,5 C 23,9 C 0,0 km/h (0 Bft)
17.06.2013 07:10 24,2 C 58 % 1018,5 hPa 0,0 l/m 0,6 km/h (0 Bft) NO 45 15,4 C 24,5 C 2,9 km/h (1 Bft)
17.06.2013 07:15 25,2 C 59 % 1018,5 hPa 0,0 l/m 0,6 km/h (0 Bft) N-NO 22 16,6 C 24,9 C 0,0 km/h (0 Bft)
17.06.2013 07:20 25,1 C 55 % 1018,5 hPa 0,0 l/m 1,1 km/h (1 Bft) S-SW 202 15,4 C 25,5 C 5,3 km/h (1 Bft)
17.06.2013 07:25 25,3 C 54 % 1018,8 hPa 0,0 l/m 1,1 km/h (1 Bft) W 270 15,3 C 25,7 C 0,0 km/h (0 Bft)
17.06.2013 07:30 25,6 C 56 % 1018,8 hPa 0,0 l/m 0,5 km/h (0 Bft) W 270 16,2 C 26,4 C 0,0 km/h (0 Bft)
17.06.2013 07:35 25,7 C 53 % 1018,8 hPa 0,0 l/m 0,2 km/h (0 Bft) W-NW 292 15,4 C 26,8 C 2,4 km/h (1 Bft)
17.06.2013 07:40 25,6 C 55 % 1018,8 hPa 0,0 l/m 0,6 km/h (0 Bft) N 360 15,9 C 27,0 C 0,0 km/h (0 Bft)
17.06.2013 07:45 26,6 C 53 % 1019,0 hPa 0,0 l/m 0,6 km/h (0 Bft) N-NO 22 16,2 C 27,3 C 0,0 km/h (0 Bft)
17.06.2013 07:50 26,5 C 53 % 1019,0 hPa 0,0 l/m 0,6 km/h (0 Bft) N 360 16,1 C 27,4 C 1,6 km/h (1 Bft)
17.06.2013 07:55 26,9 C 53 % 1019,0 hPa 0,0 l/m 1,0 km/h (0 Bft) N-NO 22 16,5 C 27,5 C 3,1 km/h (1 Bft)
17.06.2013 08:00 27,6 C 53 % 1019,0 hPa 0,0 l/m 1,0 km/h (0 Bft) N 360 17,1 C 27,6 C 0,0 km/h (0 Bft)
17.06.2013 08:05 28,0 C 51 % 1019,2 hPa 0,0 l/m 1,3 km/h (1 Bft) NO 45 16,9 C 27,8 C 0,0 km/h (0 Bft)
17.06.2013 08:10 28,5 C 48 % 1019,2 hPa 0,0 l/m 0,6 km/h (0 Bft) N-NO 22 16,4 C 28,7 C 1,6 km/h (1 Bft)
17.06.2013 08:15 28,4 C 48 % 1019,2 hPa 0,0 l/m 0,3 km/h (0 Bft) NO 45 16,3 C 29,1 C 1,6 km/h (1 Bft)
17.06.2013 08:20 28,7 C 48 % 1019,2 hPa 0,0 l/m 0,2 km/h (0 Bft) N-NO 22 16,6 C 30,0 C 0,0 km/h (0 Bft)
17.06.2013 08:25 28,7 C 49 % 1019,2 hPa 0,0 l/m 0,3 km/h (0 Bft) NO 45 16,9 C 30,1 C 1,8 km/h (1 Bft)
17.06.2013 08:30 29,3 C 48 % 1019,2 hPa 0,0 l/m 0,3 km/h (0 Bft) N 360 17,1 C 30,6 C 0,0 km/h (0 Bft)
17.06.2013 08:35 29,5 C 48 % 1019,2 hPa 0,0 l/m 0,2 km/h (0 Bft) N-NO 22 17,3 C 30,8 C 0,0 km/h (0 Bft)
17.06.2013 08:40 29,3 C 48 % 1019,2 hPa 0,0 l/m 0,3 km/h (0 Bft) N-NO 22 17,1 C 31,2 C 2,3 km/h (1 Bft)
17.06.2013 08:45 29,7 C 46 % 1019,3 hPa 0,0 l/m 1,0 km/h (0 Bft) NO 45 16,8 C 30,8 C 0,0 km/h (0 Bft)
17.06.2013 08:50 29,9 C 47 % 1019,3 hPa 0,0 l/m 0,8 km/h (0 Bft) N 360 17,3 C 31,2 C 0,0 km/h (0 Bft)
17.06.2013 08:55 30,0 C 46 % 1019,3 hPa 0,0 l/m 0,6 km/h (0 Bft) N 360 17,1 C 31,2 C 2,4 km/h (1 Bft)
17.06.2013 09:00 29,7 C 45 % 1019,3 hPa 0,0 l/m 1,3 km/h (1 Bft) N-NO 22 16,5 C 31,1 C 0,0 km/h (0 Bft)
17.06.2013 09:05 30,5 C 46 % 1019,6 hPa 0,0 l/m 1,1 km/h (1 Bft) N 360 17,5 C 31,4 C 0,0 km/h (0 Bft)
17.06.2013 09:10 30,7 C 43 % 1019,6 hPa 0,0 l/m 0,3 km/h (0 Bft) N 360 16,7 C 32,0 C 2,7 km/h (1 Bft)
17.06.2013 09:15 30,7 C 44 % 1019,6 hPa 0,0 l/m 0,5 km/h (0 Bft) NO 45 17,0 C 32,0 C 0,0 km/h (0 Bft)
17.06.2013 09:20 30,6 C 45 % 1019,6 hPa 0,0 l/m 0,3 km/h (0 Bft) N-NW 337 17,3 C 32,8 C 0,0 km/h (0 Bft)
17.06.2013 09:25 30,8 C 47 % 1019,6 hPa 0,0 l/m 0,0 km/h (0 Bft) N-NW 337 18,2 C 33,2 C 0,0 km/h (0 Bft)
17.06.2013 09:30 30,7 C 45 % 1019,6 hPa 0,0 l/m 1,0 km/h (0 Bft) N 360 17,4 C 33,2 C 1,9 km/h (1 Bft)
17.06.2013 09:35 30,9 C 45 % 1019,6 hPa 0,0 l/m 1,8 km/h (1 Bft) SW 225 17,6 C 32,7 C 4,0 km/h (1 Bft)
17.06.2013 09:40 30,0 C 44 % 1019,6 hPa 0,0 l/m 1,9 km/h (1 Bft) NW 315 16,4 C 32,5 C 0,0 km/h (0 Bft)
17.06.2013 09:45 30,7 C 42 % 1020,1 hPa 0,0 l/m 2,3 km/h (1 Bft) N-NW 337 16,3 C 32,5 C 4,8 km/h (1 Bft)
17.06.2013 09:50 30,3 C 41 % 1020,1 hPa 0,0 l/m 2,7 km/h (1 Bft) W 270 15,6 C 32,0 C 3,4 km/h (1 Bft)
17.06.2013 09:55 30,2 C 43 % 1020,1 hPa 0,0 l/m 2,9 km/h (1 Bft) NW 315 16,2 C 32,0 C 4,0 km/h (1 Bft)
17.06.2013 10:00 30,7 C 43 % 1020,1 hPa 0,0 l/m 2,4 km/h (1 Bft) W-NW 292 16,7 C 32,2 C 3,9 km/h (1 Bft)
17.06.2013 10:05 31,0 C 44 % 1020,2 hPa 0,0 l/m 2,6 km/h (1 Bft) N-NW 337 17,3 C 32,1 C 3,5 km/h (1 Bft)
17.06.2013 10:10 30,8 C 39 % 1020,2 hPa 0,0 l/m 3,2 km/h (1 Bft) W-SW 247 15,2 C 32,0 C 6,4 km/h (2 Bft)
17.06.2013 10:15 31,1 C 39 % 1020,2 hPa 0,0 l/m 3,2 km/h (1 Bft) W-NW 292 15,5 C 32,0 C 4,2 km/h (1 Bft)
17.06.2013 10:20 31,0 C 37 % 1020,2 hPa 0,0 l/m 3,1 km/h (1 Bft) W-NW 292 14,6 C 32,1 C 3,1 km/h (1 Bft)
17.06.2013 10:25 30,7 C 36 % 1020,1 hPa 0,0 l/m 3,5 km/h (1 Bft) NW 315 13,9 C 32,0 C 4,8 km/h (1 Bft)
17.06.2013 10:30 30,5 C 36 % 1020,1 hPa 0,0 l/m 3,7 km/h (1 Bft) NW 315 13,7 C 32,0 C 6,9 km/h (2 Bft)
17.06.2013 10:35 30,6 C 36 % 1020,1 hPa 0,0 l/m 3,2 km/h (1 Bft) W 270 13,8 C 32,4 C 3,1 km/h (1 Bft)
17.06.2013 10:40 31,4 C 35 % 1020,1 hPa 0,0 l/m 2,7 km/h (1 Bft) W 270 14,1 C 32,6 C 6,1 km/h (2 Bft)
17.06.2013 10:45 31,3 C 37 % 1020,2 hPa 0,0 l/m 2,4 km/h (1 Bft) N-NW 337 14,8 C 32,8 C 4,2 km/h (1 Bft)
17.06.2013 10:50 31,1 C 35 % 1020,2 hPa 0,0 l/m 1,8 km/h (1 Bft) W-NW 292 13,8 C 33,4 C 2,3 km/h (1 Bft)
17.06.2013 10:55 31,5 C 36 % 1020,2 hPa 0,0 l/m 2,1 km/h (1 Bft) W 270 14,6 C 33,7 C 2,6 km/h (1 Bft)
17.06.2013 11:00 31,2 C 33 % 1020,2 hPa 0,0 l/m 2,4 km/h (1 Bft) W-NW 292 13,0 C 33,6 C 0,0 km/h (0 Bft)
17.06.2013 11:05 31,9 C 35 % 1020,1 hPa 0,0 l/m 1,9 km/h (1 Bft) W-SW 247 14,5 C 34,2 C 2,1 km/h (1 Bft)
17.06.2013 11:10 32,5 C 34 % 1020,1 hPa 0,0 l/m 1,8 km/h (1 Bft) W 270 14,6 C 34,3 C 4,2 km/h (1 Bft)
17.06.2013 11:15 31,9 C 34 % 1020,1 hPa 0,0 l/m 2,7 km/h (1 Bft) NW 315 14,1 C 33,9 C 2,1 km/h (1 Bft)
17.06.2013 11:20 31,9 C 33 % 1020,1 hPa 0,0 l/m 3,4 km/h (1 Bft) N 360 13,6 C 33,7 C 1,8 km/h (1 Bft)
17.06.2013 11:25 32,3 C 33 % 1020,1 hPa 0,0 l/m 3,7 km/h (1 Bft) W-NW 292 13,9 C 33,6 C 4,3 km/h (1 Bft)
17.06.2013 11:30 32,5 C 33 % 1020,1 hPa 0,0 l/m 3,5 km/h (1 Bft) N-NW 337 14,1 C 33,5 C 6,6 km/h (2 Bft)
17.06.2013 11:35 32,2 C 32 % 1020,1 hPa 0,0 l/m 3,5 km/h (1 Bft) N-NW 337 13,4 C 33,4 C 5,6 km/h (1 Bft)
17.06.2013 11:40 32,2 C 33 % 1020,1 hPa 0,0 l/m 4,5 km/h (1 Bft) N 360 13,9 C 33,4 C 11,3 km/h (2 Bft)
17.06.2013 11:45 31,9 C 34 % 1020,0 hPa 0,0 l/m 4,7 km/h (1 Bft) S-SW 202 14,1 C 33,3 C 3,4 km/h (1 Bft)
17.06.2013 11:50 32,1 C 32 % 1020,0 hPa 0,0 l/m 5,3 km/h (1 Bft) N-NW 337 13,3 C 33,0 C 12,2 km/h (2 Bft)
17.06.2013 11:55 32,1 C 32 % 1020,0 hPa 0,0 l/m 5,3 km/h (1 Bft) W 270 13,3 C 32,9 C 6,0 km/h (2 Bft)
17.06.2013 12:00 32,0 C 33 % 1020,0 hPa 0,0 l/m 5,1 km/h (1 Bft) W 270 13,7 C 33,0 C 5,1 km/h (1 Bft)
17.06.2013 12:05 32,3 C 33 % 1020,0 hPa 0,0 l/m 5,1 km/h (1 Bft) N-NW 337 13,9 C 32,8 C 4,5 km/h (1 Bft)
17.06.2013 12:10 32,3 C 33 % 1020,0 hPa 0,0 l/m 5,6 km/h (1 Bft) W-NW 292 13,9 C 32,8 C 8,9 km/h (2 Bft)
17.06.2013 12:15 32,3 C 33 % 1020,0 hPa 0,0 l/m 4,5 km/h (1 Bft) S 180 13,9 C 32,8 C 2,7 km/h (1 Bft)
17.06.2013 12:20 31,7 C 33 % 1020,0 hPa 0,0 l/m 5,3 km/h (1 Bft) N-NW 337 13,4 C 33,0 C 14,0 km/h (3 Bft)
17.06.2013 12:25 31,9 C 35 % 1020,0 hPa 0,0 l/m 5,5 km/h (1 Bft) O-SO 112 14,5 C 32,9 C 2,3 km/h (1 Bft)
17.06.2013 12:30 31,9 C 34 % 1020,0 hPa 0,0 l/m 4,7 km/h (1 Bft) O-SO 112 14,1 C 33,3 C 6,1 km/h (2 Bft)
17.06.2013 12:35 31,6 C 35 % 1020,0 hPa 0,0 l/m 4,8 km/h (1 Bft) N-NW 337 14,2 C 33,3 C 4,8 km/h (1 Bft)
17.06.2013 12:40 31,7 C 33 % 1020,0 hPa 0,0 l/m 5,3 km/h (1 Bft) W 270 13,4 C 33,4 C 6,1 km/h (2 Bft)
17.06.2013 12:45 31,3 C 33 % 1020,0 hPa 0,0 l/m 5,6 km/h (1 Bft) NW 315 13,1 C 33,3 C 8,0 km/h (2 Bft)
17.06.2013 12:50 31,6 C 33 % 1020,0 hPa 0,0 l/m 6,1 km/h (2 Bft) N-NW 337 13,3 C 33,2 C 7,2 km/h (2 Bft)
17.06.2013 12:55 31,5 C 34 % 1020,0 hPa 0,0 l/m 6,3 km/h (2 Bft) N-NW 337 13,7 C 33,0 C 6,3 km/h (2 Bft)
17.06.2013 13:00 31,3 C 34 % 1020,0 hPa 0,0 l/m 6,0 km/h (2 Bft) SO 135 13,5 C 32,9 C 3,1 km/h (1 Bft)
17.06.2013 13:05 31,6 C 33 % 1019,8 hPa 0,0 l/m 5,6 km/h (1 Bft) N-NW 337 13,3 C 33,0 C 6,9 km/h (2 Bft)
17.06.2013 13:10 31,8 C 33 % 1019,8 hPa 0,0 l/m 4,8 km/h (1 Bft) O 90 13,5 C 33,4 C 6,1 km/h (2 Bft)
17.06.2013 13:15 31,7 C 33 % 1019,8 hPa 0,0 l/m 5,1 km/h (1 Bft) N-NW 337 13,4 C 33,4 C 10,5 km/h (2 Bft)
17.06.2013 13:20 32,1 C 33 % 1019,8 hPa 0,0 l/m 5,5 km/h (1 Bft) N-NW 337 13,8 C 33,3 C 6,1 km/h (2 Bft)
17.06.2013 13:25 31,6 C 31 % 1020,0 hPa 0,0 l/m 5,3 km/h (1 Bft) W-SW 247 12,4 C 33,5 C 5,8 km/h (2 Bft)
17.06.2013 13:30 30,7 C 33 % 1020,0 hPa 0,0 l/m 4,5 km/h (1 Bft) W-NW 292 12,6 C 33,1 C 3,4 km/h (1 Bft)
17.06.2013 13:35 29,8 C 34 % 1020,0 hPa 0,0 l/m 4,8 km/h (1 Bft) NW 315 12,2 C 32,7 C 4,3 km/h (1 Bft)
17.06.2013 13:40 31,3 C 32 % 1020,0 hPa 0,0 l/m 4,7 km/h (1 Bft) W-NW 292 12,6 C 32,4 C 4,7 km/h (1 Bft)
17.06.2013 13:45 31,9 C 33 % 1019,7 hPa 0,0 l/m 4,2 km/h (1 Bft) W-NW 292 13,6 C 33,1 C 4,2 km/h (1 Bft)
17.06.2013 13:50 32,0 C 30 % 1019,7 hPa 0,0 l/m 4,0 km/h (1 Bft) W 270 12,2 C 33,9 C 4,2 km/h (1 Bft)
17.06.2013 13:55 32,0 C 30 % 1019,7 hPa 0,0 l/m 5,3 km/h (1 Bft) W-NW 292 12,2 C 34,1 C 12,1 km/h (2 Bft)
17.06.2013 14:00 32,0 C 28 % 1019,7 hPa 0,0 l/m 6,8 km/h (2 Bft) W 270 11,2 C 34,0 C 14,3 km/h (3 Bft)
17.06.2013 14:05 32,4 C 32 % 1019,8 hPa 0,0 l/m 5,6 km/h (1 Bft) N-NW 337 13,6 C 33,7 C 7,9 km/h (2 Bft)
17.06.2013 14:10 32,9 C 29 % 1019,8 hPa 0,0 l/m 4,2 km/h (1 Bft) W-NW 292 12,5 C 34,4 C 6,6 km/h (2 Bft)
17.06.2013 14:15 32,7 C 28 % 1019,8 hPa 0,0 l/m 4,2 km/h (1 Bft) S-SW 202 11,8 C 34,7 C 7,7 km/h (2 Bft)
17.06.2013 14:20 32,8 C 28 % 1019,8 hPa 0,0 l/m 4,3 km/h (1 Bft) SW 225 11,9 C 34,2 C 5,3 km/h (1 Bft)
17.06.2013 14:25 33,1 C 29 % 1019,9 hPa 0,0 l/m 4,7 km/h (1 Bft) W-NW 292 12,6 C 34,5 C 5,0 km/h (1 Bft)
17.06.2013 14:30 33,8 C 26 % 1019,9 hPa 0,0 l/m 4,7 km/h (1 Bft) W-NW 292 11,6 C 34,9 C 7,6 km/h (2 Bft)
17.06.2013 14:35 33,4 C 25 % 1019,9 hPa 0,0 l/m 4,5 km/h (1 Bft) W 270 10,7 C 35,1 C 3,2 km/h (1 Bft)
17.06.2013 14:40 31,8 C 30 % 1019,9 hPa 0,0 l/m 4,0 km/h (1 Bft) W 270 12,1 C 34,8 C 3,4 km/h (1 Bft)
17.06.2013 14:45 32,4 C 32 % 1020,0 hPa 0,0 l/m 3,2 km/h (1 Bft) W-NW 292 13,6 C 34,6 C 4,2 km/h (1 Bft)
17.06.2013 14:50 33,0 C 27 % 1020,0 hPa 0,0 l/m 2,9 km/h (1 Bft) N-NW 337 11,5 C 34,9 C 7,6 km/h (2 Bft)
17.06.2013 14:55 33,3 C 29 % 1020,0 hPa 0,0 l/m 3,2 km/h (1 Bft) W-NW 292 12,8 C 35,2 C 6,1 km/h (2 Bft)
17.06.2013 15:00 33,2 C 27 % 1020,0 hPa 0,0 l/m 4,2 km/h (1 Bft) W-NW 292 11,6 C 35,6 C 11,1 km/h (2 Bft)
17.06.2013 15:05 33,0 C 31 % 1019,8 hPa 0,0 l/m 4,3 km/h (1 Bft) W 270 13,6 C 35,4 C 8,5 km/h (2 Bft)
17.06.2013 15:10 32,7 C 32 % 1019,8 hPa 0,0 l/m 5,0 km/h (1 Bft) SW 225 13,8 C 34,8 C 4,8 km/h (1 Bft)
17.06.2013 15:15 33,0 C 30 % 1019,8 hPa 0,0 l/m 4,3 km/h (1 Bft) N 360 13,1 C 35,1 C 6,4 km/h (2 Bft)
17.06.2013 15:20 33,1 C 30 % 1019,8 hPa 0,0 l/m 4,5 km/h (1 Bft) W-SW 247 13,2 C 35,4 C 9,5 km/h (2 Bft)
17.06.2013 15:25 33,2 C 30 % 1019,9 hPa 0,0 l/m 5,5 km/h (1 Bft) W 270 13,3 C 35,1 C 6,8 km/h (2 Bft)
17.06.2013 15:30 32,9 C 31 % 1019,9 hPa 0,0 l/m 5,5 km/h (1 Bft) NW 315 13,5 C 35,0 C 6,6 km/h (2 Bft)
17.06.2013 15:35 32,9 C 31 % 1019,9 hPa 0,0 l/m 5,5 km/h (1 Bft) W 270 13,5 C 34,9 C 11,6 km/h (2 Bft)
17.06.2013 15:40 33,2 C 29 % 1019,9 hPa 0,0 l/m 4,8 km/h (1 Bft) S-SW 202 12,7 C 34,9 C 1,6 km/h (1 Bft)
17.06.2013 15:45 33,5 C 29 % 1019,8 hPa 0,0 l/m 4,5 km/h (1 Bft) W-NW 292 13,0 C 35,4 C 8,2 km/h (2 Bft)
17.06.2013 15:50 32,9 C 27 % 1019,8 hPa 0,0 l/m 5,6 km/h (1 Bft) W-NW 292 11,4 C 35,3 C 6,1 km/h (2 Bft)
17.06.2013 15:55 33,1 C 29 % 1019,8 hPa 0,0 l/m 6,3 km/h (2 Bft) S 180 12,6 C 35,1 C 7,1 km/h (2 Bft)
17.06.2013 16:00 32,9 C 27 % 1019,8 hPa 0,0 l/m 4,5 km/h (1 Bft) N 360 11,4 C 35,8 C 6,8 km/h (2 Bft)
17.06.2013 16:05 33,1 C 28 % 1019,8 hPa 0,0 l/m 3,9 km/h (1 Bft) N 360 12,1 C 36,3 C 4,0 km/h (1 Bft)
17.06.2013 16:10 33,4 C 30 % 1019,8 hPa 0,0 l/m 2,4 km/h (1 Bft) N 360 13,4 C 37,2 C 3,2 km/h (1 Bft)
17.06.2013 16:15 33,3 C 29 % 1019,8 hPa 0,0 l/m 1,9 km/h (1 Bft) N-NO 22 12,8 C 37,5 C 4,7 km/h (1 Bft)
17.06.2013 16:20 33,1 C 30 % 1019,8 hPa 0,0 l/m 3,1 km/h (1 Bft) N-NO 22 13,2 C 37,4 C 4,7 km/h (1 Bft)
17.06.2013 16:25 33,3 C 30 % 1019,7 hPa 0,0 l/m 2,9 km/h (1 Bft) N-NW 337 13,3 C 37,6 C 7,9 km/h (2 Bft)
17.06.2013 16:30 32,6 C 31 % 1019,7 hPa 0,0 l/m 3,7 km/h (1 Bft) N-NW 337 13,2 C 37,4 C 9,0 km/h (2 Bft)
17.06.2013 16:35 32,4 C 31 % 1019,7 hPa 0,0 l/m 4,8 km/h (1 Bft) N 360 13,1 C 36,9 C 6,1 km/h (2 Bft)
17.06.2013 16:40 32,1 C 30 % 1019,7 hPa 0,0 l/m 4,2 km/h (1 Bft) NO 45 12,3 C 36,8 C 3,9 km/h (1 Bft)
17.06.2013 16:45 31,8 C 32 % 1019,6 hPa 0,0 l/m 4,5 km/h (1 Bft) N-NW 337 13,0 C 36,9 C 9,2 km/h (2 Bft)
17.06.2013 16:50 31,7 C 32 % 1019,6 hPa 0,0 l/m 4,8 km/h (1 Bft) NW 315 12,9 C 36,6 C 4,8 km/h (1 Bft)
17.06.2013 16:55 31,7 C 31 % 1019,6 hPa 0,0 l/m 3,9 km/h (1 Bft) S 180 12,5 C 36,8 C 4,3 km/h (1 Bft)
17.06.2013 17:00 31,3 C 34 % 1019,6 hPa 0,0 l/m 3,2 km/h (1 Bft) W-SW 247 13,5 C 36,9 C 1,9 km/h (1 Bft)
17.06.2013 17:05 31,4 C 34 % 1019,4 hPa 0,0 l/m 4,0 km/h (1 Bft) SW 225 13,6 C 37,0 C 3,7 km/h (1 Bft)
17.06.2013 17:10 31,0 C 34 % 1019,4 hPa 0,0 l/m 2,9 km/h (1 Bft) N-NW 337 13,3 C 37,4 C 3,2 km/h (1 Bft)
17.06.2013 17:15 31,0 C 34 % 1019,4 hPa 0,0 l/m 2,1 km/h (1 Bft) S 180 13,3 C 37,6 C 0,0 km/h (0 Bft)
17.06.2013 17:20 30,3 C 35 % 1019,4 hPa 0,0 l/m 2,1 km/h (1 Bft) N-NW 337 13,1 C 37,2 C 2,7 km/h (1 Bft)
17.06.2013 17:25 30,3 C 37 % 1019,2 hPa 0,0 l/m 1,9 km/h (1 Bft) N 360 14,0 C 37,0 C 6,1 km/h (2 Bft)
17.06.2013 17:30 30,1 C 35 % 1019,2 hPa 0,0 l/m 1,8 km/h (1 Bft) NO 45 12,9 C 37,1 C 0,0 km/h (0 Bft)
17.06.2013 17:35 30,0 C 37 % 1019,2 hPa 0,0 l/m 1,3 km/h (1 Bft) NO 45 13,7 C 37,0 C 0,0 km/h (0 Bft)
17.06.2013 17:40 30,2 C 37 % 1019,2 hPa 0,0 l/m 0,8 km/h (0 Bft) N-NO 22 13,9 C 37,9 C 6,1 km/h (2 Bft)
17.06.2013 17:45 30,5 C 36 % 1019,2 hPa 0,0 l/m 1,9 km/h (1 Bft) W 270 13,7 C 37,9 C 2,6 km/h (1 Bft)
17.06.2013 17:50 30,5 C 36 % 1019,2 hPa 0,0 l/m 2,6 km/h (1 Bft) N 360 13,7 C 37,8 C 1,9 km/h (1 Bft)
17.06.2013 17:55 30,5 C 35 % 1019,2 hPa 0,0 l/m 2,4 km/h (1 Bft) S 180 13,3 C 37,7 C 0,0 km/h (0 Bft)
17.06.2013 18:00 30,4 C 36 % 1019,2 hPa 0,0 l/m 2,3 km/h (1 Bft) W-SW 247 13,6 C 38,1 C 5,1 km/h (1 Bft)
17.06.2013 18:05 30,6 C 35 % 1019,1 hPa 0,0 l/m 3,1 km/h (1 Bft) W-NW 292 13,4 C 37,5 C 4,5 km/h (1 Bft)
17.06.2013 18:10 30,8 C 34 % 1019,1 hPa 0,0 l/m 4,3 km/h (1 Bft) N 360 13,1 C 37,1 C 5,3 km/h (1 Bft)
17.06.2013 18:15 30,6 C 37 % 1019,1 hPa 0,0 l/m 3,4 km/h (1 Bft) NO 45 14,2 C 37,2 C 4,0 km/h (1 Bft)
17.06.2013 18:20 30,4 C 37 % 1019,1 hPa 0,0 l/m 2,6 km/h (1 Bft) N 360 14,0 C 37,3 C 2,6 km/h (1 Bft)
17.06.2013 18:25 30,5 C 36 % 1019,2 hPa 0,0 l/m 2,9 km/h (1 Bft) W-NW 292 13,7 C 37,3 C 3,7 km/h (1 Bft)
17.06.2013 18:30 30,6 C 36 % 1019,2 hPa 0,0 l/m 2,4 km/h (1 Bft) N-NW 337 13,8 C 37,4 C 2,7 km/h (1 Bft)
17.06.2013 18:35 30,5 C 36 % 1019,2 hPa 0,0 l/m 2,1 km/h (1 Bft) W 270 13,7 C 37,5 C 4,3 km/h (1 Bft)
17.06.2013 18:40 30,4 C 36 % 1019,2 hPa 0,0 l/m 3,2 km/h (1 Bft) N-NO 22 13,6 C 36,9 C 2,9 km/h (1 Bft)
17.06.2013 18:45 30,3 C 39 % 1018,6 hPa 0,0 l/m 3,4 km/h (1 Bft) S-SW 202 14,8 C 36,8 C 4,8 km/h (1 Bft)
17.06.2013 18:50 29,8 C 39 % 1018,6 hPa 0,0 l/m 2,7 km/h (1 Bft) W-NW 292 14,3 C 36,4 C 3,9 km/h (1 Bft)
17.06.2013 18:55 29,9 C 39 % 1018,6 hPa 0,0 l/m 2,9 km/h (1 Bft) W 270 14,4 C 36,3 C 1,8 km/h (1 Bft)
17.06.2013 19:00 29,5 C 39 % 1018,6 hPa 0,0 l/m 2,6 km/h (1 Bft) O-NO 67 14,1 C 36,5 C 3,9 km/h (1 Bft)
17.06.2013 19:05 29,3 C 41 % 1018,5 hPa 0,0 l/m 2,3 km/h (1 Bft) N-NO 22 14,7 C 36,3 C 0,0 km/h (0 Bft)
17.06.2013 19:10 29,1 C 41 % 1018,5 hPa 0,0 l/m 1,4 km/h (1 Bft) W-SW 247 14,5 C 36,5 C 0,0 km/h (0 Bft)
17.06.2013 19:15 29,0 C 40 % 1018,5 hPa 0,0 l/m 1,0 km/h (0 Bft) O 90 14,0 C 36,9 C 5,1 km/h (1 Bft)
17.06.2013 19:20 29,0 C 42 % 1018,5 hPa 0,0 l/m 0,8 km/h (0 Bft) N 360 14,8 C 36,8 C 0,0 km/h (0 Bft)
17.06.2013 19:25 28,8 C 41 % 1018,4 hPa 0,0 l/m 1,3 km/h (1 Bft) NO 45 14,2 C 36,6 C 3,5 km/h (1 Bft)
17.06.2013 19:30 28,7 C 41 % 1018,4 hPa 0,0 l/m 1,8 km/h (1 Bft) NO 45 14,1 C 36,1 C 2,7 km/h (1 Bft)
17.06.2013 19:35 28,6 C 42 % 1018,4 hPa 0,0 l/m 2,1 km/h (1 Bft) O-SO 112 14,4 C 35,5 C 0,0 km/h (0 Bft)
17.06.2013 19:40 28,5 C 41 % 1018,4 hPa 0,0 l/m 2,1 km/h (1 Bft) O 90 13,9 C 35,3 C 2,1 km/h (1 Bft)
17.06.2013 19:45 28,3 C 42 % 1018,6 hPa 0,0 l/m 1,4 km/h (1 Bft) O 90 14,1 C 35,1 C 1,6 km/h (1 Bft)
17.06.2013 19:50 28,1 C 42 % 1018,6 hPa 0,0 l/m 1,3 km/h (1 Bft) NO 45 14,0 C 34,8 C 2,7 km/h (1 Bft)
17.06.2013 19:55 28,0 C 43 % 1018,6 hPa 0,0 l/m 1,3 km/h (1 Bft) O-NO 67 14,2 C 34,4 C 1,6 km/h (1 Bft)
17.06.2013 20:00 27,7 C 44 % 1018,6 hPa 0,0 l/m 1,6 km/h (1 Bft) O-NO 67 14,3 C 34,1 C 3,4 km/h (1 Bft)
17.06.2013 20:05 27,5 C 45 % 1018,7 hPa 0,0 l/m 1,6 km/h (1 Bft) O-SO 112 14,5 C 33,5 C 0,0 km/h (0 Bft)
17.06.2013 20:10 27,3 C 46 % 1018,7 hPa 0,0 l/m 2,3 km/h (1 Bft) O-SO 112 14,6 C 32,7 C 3,5 km/h (1 Bft)
17.06.2013 20:15 27,2 C 46 % 1018,7 hPa 0,0 l/m 2,1 km/h (1 Bft) O-NO 67 14,6 C 32,3 C 1,8 km/h (1 Bft)
17.06.2013 20:20 27,0 C 46 % 1018,7 hPa 0,0 l/m 2,9 km/h (1 Bft) O-NO 67 14,4 C 31,7 C 3,2 km/h (1 Bft)
17.06.2013 20:25 26,5 C 48 % 1018,7 hPa 0,0 l/m 2,1 km/h (1 Bft) O-NO 67 14,6 C 31,4 C 1,9 km/h (1 Bft)
17.06.2013 20:30 26,1 C 48 % 1018,7 hPa 0,0 l/m 0,8 km/h (0 Bft) O-SO 112 14,2 C 31,0 C 2,1 km/h (1 Bft)
17.06.2013 20:35 25,8 C 50 % 1018,7 hPa 0,0 l/m 0,5 km/h (0 Bft) O 90 14,6 C 30,5 C 0,0 km/h (0 Bft)
17.06.2013 20:40 25,2 C 52 % 1018,7 hPa 0,0 l/m 1,1 km/h (1 Bft) O-NO 67 14,6 C 29,6 C 2,4 km/h (1 Bft)
17.06.2013 20:45 25,0 C 53 % 1018,8 hPa 0,0 l/m 1,6 km/h (1 Bft) NO 45 14,7 C 29,0 C 2,9 km/h (1 Bft)
17.06.2013 20:50 24,7 C 54 % 1018,8 hPa 0,0 l/m 1,9 km/h (1 Bft) O 90 14,8 C 28,0 C 2,4 km/h (1 Bft)
17.06.2013 20:55 24,1 C 55 % 1018,8 hPa 0,0 l/m 1,6 km/h (1 Bft) O 90 14,5 C 27,4 C 2,7 km/h (1 Bft)
17.06.2013 21:00 23,5 C 57 % 1018,8 hPa 0,0 l/m 0,8 km/h (0 Bft) O 90 14,5 C 26,3 C 0,0 km/h (0 Bft)
17.06.2013 21:05 23,1 C 58 % 1018,9 hPa 0,0 l/m 0,5 km/h (0 Bft) O-SO 112 14,4 C 25,7 C 1,6 km/h (1 Bft)
17.06.2013 21:11 23,0 C 58 % 1018,9 hPa 0,0 l/m 0,8 km/h (0 Bft) O-SO 112 14,3 C 24,7 C 1,6 km/h (1 Bft)
17.06.2013 21:15 22,6 C 59 % 1018,9 hPa 0,0 l/m 0,8 km/h (0 Bft) O-SO 112 14,2 C 24,2 C 0,0 km/h (0 Bft)
17.06.2013 21:20 22,5 C 61 % 1018,9 hPa 0,0 l/m 0,5 km/h (0 Bft) NO 45 14,6 C 23,3 C 2,7 km/h (1 Bft)
17.06.2013 21:25 22,1 C 62 % 1019,1 hPa 0,0 l/m 1,0 km/h (0 Bft) O-SO 112 14,5 C 22,8 C 1,9 km/h (1 Bft)
17.06.2013 21:30 21,6 C 66 % 1019,1 hPa 0,0 l/m 1,6 km/h (1 Bft) O 90 15,0 C 22,2 C 2,9 km/h (1 Bft)
17.06.2013 21:35 21,2 C 68 % 1019,1 hPa 0,0 l/m 2,4 km/h (1 Bft) NO 45 15,1 C 21,8 C 3,5 km/h (1 Bft)
17.06.2013 21:40 21,1 C 68 % 1019,1 hPa 0,0 l/m 3,5 km/h (1 Bft) O 90 15,0 C 21,4 C 2,9 km/h (1 Bft)
17.06.2013 21:45 20,8 C 69 % 1019,3 hPa 0,0 l/m 3,7 km/h (1 Bft) O 90 14,9 C 21,1 C 3,9 km/h (1 Bft)
17.06.2013 21:50 20,9 C 68 % 1019,3 hPa 0,0 l/m 3,7 km/h (1 Bft) O 90 14,8 C 20,9 C 4,3 km/h (1 Bft)
17.06.2013 21:55 20,7 C 70 % 1019,3 hPa 0,0 l/m 4,0 km/h (1 Bft) O 90 15,0 C 20,9 C 4,2 km/h (1 Bft)
17.06.2013 22:00 20,5 C 70 % 1019,3 hPa 0,0 l/m 2,9 km/h (1 Bft) O-SO 112 14,8 C 20,8 C 1,8 km/h (1 Bft)
17.06.2013 22:05 20,4 C 69 % 1019,2 hPa 0,0 l/m 1,4 km/h (1 Bft) O-SO 112 14,5 C 20,7 C 0,0 km/h (0 Bft)
17.06.2013 22:10 20,2 C 69 % 1019,2 hPa 0,0 l/m 0,5 km/h (0 Bft) O 90 14,3 C 20,4 C 2,6 km/h (1 Bft)
17.06.2013 22:15 20,1 C 70 % 1019,2 hPa 0,0 l/m 0,5 km/h (0 Bft) SO 135 14,5 C 20,4 C 0,0 km/h (0 Bft)
17.06.2013 22:20 20,0 C 70 % 1019,2 hPa 0,0 l/m 1,0 km/h (0 Bft) O-SO 112 14,4 C 20,3 C 1,9 km/h (1 Bft)
17.06.2013 22:25 19,8 C 70 % 1019,3 hPa 0,0 l/m 0,6 km/h (0 Bft) O 90 14,2 C 20,2 C 0,0 km/h (0 Bft)
17.06.2013 22:30 19,3 C 71 % 1019,3 hPa 0,0 l/m 0,0 km/h (0 Bft) O-SO 112 13,9 C 19,8 C 0,0 km/h (0 Bft)
17.06.2013 22:35 19,1 C 71 % 1019,3 hPa 0,0 l/m 0,0 km/h (0 Bft) O-SO 112 13,7 C 19,5 C 0,0 km/h (0 Bft)
17.06.2013 22:40 19,0 C 71 % 1019,3 hPa 0,0 l/m 0,0 km/h (0 Bft) N 360 13,6 C 19,2 C 0,0 km/h (0 Bft)
17.06.2013 22:45 18,8 C 72 % 1019,6 hPa 0,0 l/m 0,0 km/h (0 Bft) O 90 13,6 C 19,0 C 0,0 km/h (0 Bft)
17.06.2013 22:50 18,6 C 72 % 1019,6 hPa 0,0 l/m 0,0 km/h (0 Bft) O 90 13,4 C 18,8 C 0,0 km/h (0 Bft)
17.06.2013 22:55 18,6 C 72 % 1019,6 hPa 0,0 l/m 0,0 km/h (0 Bft) O-NO 67 13,4 C 18,7 C 1,6 km/h (1 Bft)
17.06.2013 23:00 18,9 C 72 % 1019,6 hPa 0,0 l/m 0,2 km/h (0 Bft) O 90 13,7 C 18,8 C 0,0 km/h (0 Bft)
17.06.2013 23:05 19,0 C 72 % 1019,4 hPa 0,0 l/m 0,5 km/h (0 Bft) S-SW 202 13,8 C 18,9 C 3,1 km/h (1 Bft)
17.06.2013 23:10 19,0 C 71 % 1019,4 hPa 0,0 l/m 0,6 km/h (0 Bft) O-SO 112 13,6 C 19,1 C 1,9 km/h (1 Bft)
17.06.2013 23:15 19,1 C 71 % 1019,4 hPa 0,0 l/m 0,5 km/h (0 Bft) S-SO 157 13,7 C 19,2 C 0,0 km/h (0 Bft)
17.06.2013 23:20 19,0 C 71 % 1019,4 hPa 0,0 l/m 0,3 km/h (0 Bft) NO 45 13,6 C 19,1 C 0,0 km/h (0 Bft)
17.06.2013 23:25 18,6 C 71 % 1019,7 hPa 0,0 l/m 0,2 km/h (0 Bft) O-NO 67 13,2 C 18,9 C 0,0 km/h (0 Bft)
17.06.2013 23:30 18,6 C 73 % 1019,7 hPa 0,0 l/m 0,0 km/h (0 Bft) NO 45 13,7 C 18,6 C 0,0 km/h (0 Bft)
17.06.2013 23:35 18,4 C 72 % 1019,7 hPa 0,0 l/m 0,0 km/h (0 Bft) NO 45 13,3 C 18,5 C 0,0 km/h (0 Bft)
17.06.2013 23:40 18,2 C 72 % 1019,7 hPa 0,0 l/m 0,0 km/h (0 Bft) O 90 13,1 C 18,3 C 0,0 km/h (0 Bft)
17.06.2013 23:45 18,3 C 73 % 1019,6 hPa 0,0 l/m 0,0 km/h (0 Bft) O 90 13,4 C 18,1 C 0,0 km/h (0 Bft)
17.06.2013 23:50 18,6 C 73 % 1019,6 hPa 0,0 l/m 0,3 km/h (0 Bft) S 180 13,7 C 18,2 C 2,1 km/h (1 Bft)
17.06.2013 23:55 18,4 C 72 % 1019,6 hPa 0,0 l/m 0,3 km/h (0 Bft) O 90 13,3 C 18,3 C 0,0 km/h (0 Bft)
_ Min-Zeit 05:45 14:35 19:40 - 23:45 - - 14:35 05:33 23:55
Minimum _ 13,1 C 25 % 1018,4 hPa - 0,0 km/h (0 Bft) - - 10,7 C 13,3 C 0,0 km/h (0 Bft)
_ Max-Zeit 14:30 06:10 11:00 23:55 14:00 - - 09:25 18:00 14:00
Maximum _ 33,8 C 90 % 1020,2 hPa 0,0 l/m 6,8 km/h
W (2 Bft)
- - 18,2 C 38,1 C 14,3 km/h
W (3 Bft)
Durchschnitt _ 24,7 C 56 % 1019,4 hPa #0,0 l/m 1,9 km/h (1 Bft) W-NW - 13,9 C 26,6 C 2,7 km/h (1 Bft)